User: anonymous   Login
Location: Cutler
(25.6150°N, 80.3110°W)
Time: 11:27:33
(UTC-04:00)
Language:

Cosmos 2360 Rocket - Orbit

View from above orbital plane
View from above orbital plane
View from above satellite
View from above satellite

Ground track
Ground track

The orbit data is extracted from the following two-line orbital elements,

1 25407U 98045B   16274.21247042  .00000044  00000-0  46698-4 0  9991
2 25407  71.0106 227.7529 0009883 248.8569 111.1498 14.15751140939385
Epoch (UTC): 30 September 2016 05:05:57
Eccentricity: 0.0009883
inclination: 71.0106°
perigee height: 832 km
apogee height: 847 km
right ascension of ascending node: 227.7529°
argument of perigee: 248.8569°
revolutions per day: 14.15751140
mean anomaly at epoch: 111.1498°
orbit number at epoch: 93938

The dashed part of the orbit path shows where the satellite is in the earth's shadow,  

DLR